902  
NZUS99 KIND 201409  
HRRIND  
 
WEATHER ROUNDUP FOR INDIANA AND SURROUNDING STATES  
NATIONAL WEATHER SERVICE INDIANAPOLIS IN  
1000 AM EDT WED SEP 20 2017  
   
..INDIANA
 
 
 
CITY SKY/WX TMP DP RH WIND PRES REMARKS  
INDIANAPOLIS FOG 69 68 96 SE7 30.01R VSB 1/8  
EAGLE CREEK MOSUNNY 71 67 87 VRB5 30.01R  
ZIONSVILLE SUNNY 70 70 99 S6 30.03R FOG  
ANDERSON PTSUNNY 68 68 100 S5 30.03R  
MOUNT COMFORT N/A N/A N/A N/A MISG N/A  
GREENWOOD CLOUDY 70 70 99 SE3 30.03S VSB 1/4  
SHELBYVILLE CLOUDY 70 67 90 S5 30.03R FOG  

 
 
CITY SKY/WX TMP DP RH WIND PRES REMARKS  
LAFAYETTE SUNNY 72 70 93 VRB3 29.97S  
KOKOMO MOSUNNY 70 69 97 S8 30.02R FOG  
FRANKFORT SUNNY 76 72 87 S5 30.01S  
CRAWFORDSVILLE SUNNY 72 72 100 S7 29.99  
MUNCIE SUNNY 75 68 78 S6 30.03R  
GREENCASTLE SUNNY 70 70 100 S7 30.01S  
TERRE HAUTE SUNNY 74 69 85 S8 29.99R  
BLOOMINGTON PTSUNNY 69 67 93 SE6 30.02R FOG  
CAMP ATTERBURY FOG 68 66 94 SE3 30.04R VSB 1/2  
COLUMBUS FOG 68 66 94 S3 30.03R VSB 1  
BEDFORD SUNNY 70 68 94 SE5 30.02R  
SEYMOUR FOG 70 70 100 SE5 30.03S VSB 1/2  
NORTH VERNON SUNNY 68 68 100 CALM 30.05S  

 
 
CITY SKY/WX TMP DP RH WIND PRES REMARKS  
GARY SUNNY 72 68 88 SE9 29.94F  
VALPARAISO MOSUNNY 70 68 93 SE6 29.97S FOG  
LA PORTE PTSUNNY 67 66 99 SE3 29.99S FOG  
MICHIGAN CITY SUNNY 68 68 100 SE5 29.97S  
SOUTH BEND PTSUNNY 67 67 100 SE8 29.99S FOG  
ELKHART CLOUDY 66 66 100 SE5 30.00S FOG  
GOSHEN FOG 66 64 93 SE7 30.00S VSB 1/4  
KENDALLVILLE FOG 65 65 100 SE5 30.02S VSB 1/4  
AUBURN FOG 64 63 94 CALM 30.03S VSB 1/4  
RENSSELAER SUNNY 64 61 88 SE7 29.97S FOG  
KNOX PTSUNNY 68 66 94 SE6 29.98R  
ROCHESTER PTSUNNY 73 72 94 SE5 30.00S FOG  
WARSAW FOG 64 64 100 CALM 30.01S VSB 1/2  
FORT WAYNE MOSUNNY 70 68 93 S3 30.02S  
MONTICELLO SUNNY 70 68 95 S5 29.98R  
LOGANSPORT SUNNY 70 70 100 S6 30.01R  
PERU/GRISSOM SUNNY 72 72 100 S7 29.99S  
HUNTINGTON SUNNY 71 69 96 CALM 30.01S  
RICHMOND MOSUNNY 72 70 94 SW8 30.06R FOG  
WASHINGTON SUNNY 75 69 82 S5 30.00R  
MADISON CLOUDY 68 68 100 E3 30.07S VSB 1/4  
HUNTINGBURG N/A N/A N/A N/A MISG N/A  
EVANSVILLE SUNNY 74 69 85 S3 30.01R  

 
   
..ILLINOIS
 
 
 
CITY SKY/WX TMP DP RH WIND PRES REMARKS  
CHICAGO MOSUNNY 73 65 75 SE12 29.91S  
MOLINE MOSUNNY 76 67 73 S8 29.83S  
ROCKFORD PTSUNNY 71 65 81 S12 29.88S  
KANKAKEE SUNNY 72 69 91 S9 29.95S  
PEORIA SUNNY 75 69 81 S12 29.89S  
BLOOMINGTON CLOUDY 73 68 84 S12 29.93F  
CHAMPAIGN MOSUNNY 74 69 85 S6 29.96R  
RANTOUL SUNNY 73 70 92 S8 29.96S  
DANVILLE SUNNY 71 71 100 S3 29.95R FOG  
QUINCY SUNNY 77 69 76 S13 29.86S  
SPRINGFIELD SUNNY 80 71 74 S9 29.90F  
DECATUR SUNNY 75 69 81 S9 29.94S  
MATTOON SUNNY 74 71 91 S12 29.96S  
PARIS SUNNY 77 72 84 S9 29.99R  
EFFINGHAM SUNNY 76 73 90 SE6 29.98S  
ROBINSON SUNNY 75 71 88 S7 30.00S  
OLNEY SUNNY 76 74 93 S6 29.98S  
LAWRENCEVILLE SUNNY 75 71 87 S6 29.99S  
MOUNT VERNON N/A 77 72 84 S6 29.97S  
FAIRFIELD SUNNY 77 71 82 S3 29.97S  
MOUNT CARMEL SUNNY 76 70 83 S6 29.99S  
CARMI SUNNY 74 72 92 SE6 29.99R  

 
   
..KENTUCKY
 
 
 
CITY SKY/WX TMP DP RH WIND PRES REMARKS  
LOUISVILLE MOSUNNY 73 69 87 SE6 30.03S  
PADUCAH SUNNY 78 70 76 SW7 29.99R  
OWENSBORO SUNNY 76 71 85 S9 30.02R  
FORT KNOX SUNNY 70 70 100 S3 30.03R  
LEXINGTON SUNNY 73 69 87 S3 30.08S  
BOWLING GREEN MOSUNNY 74 70 87 S6 30.05R  
JACKSON PTSUNNY 68 67 96 CALM 30.10S  

 
   
..OHIO
 
 
 
CITY SKY/WX TMP DP RH WIND PRES REMARKS  
CINCINNATI PTSUNNY 71 71 100 S7 30.05R  
DAYTON CLOUDY 71 68 90 SW5 30.06R  
TOLEDO FOG 66 32 28 CALM 30.02S VSB 1/2  
DEFIANCE FOG 66 65 96 S3 30.02S VSB 1/4  
FINDLAY SUNNY 73 67 81 VRB3 30.02S  
LIMA SUNNY 71 69 93 S5 30.04R  
WRIGHT-PAT AFB PTSUNNY 68 68 100 SE3 30.05S  
COLUMBUS MOSUNNY 72 68 87 CALM 30.05R  
CLEVELAND CLOUDY 74 67 78 W5 30.06R  

 
   
..MICHIGAN
 
 
 
CITY SKY/WX TMP DP RH WIND PRES REMARKS  
DETROIT CLOUDY 68 68 100 CALM 30.03R FOG  
GRAND RAPIDS PTSUNNY 70 65 84 SE5 29.99S  
LANSING CLOUDY 70 65 84 S3 30.01S HAZE  
KALAMAZOO CLOUDY 68 63 84 S7 30.01R HAZE  
BATTLE CREEK MOSUNNY 72 66 81 SW5 30.01S  
MARSHALL MOSUNNY 70 66 88 S5 30.00S  
JACKSON MOSUNNY 70 64 81 SE5 30.01F  
BENTON HARBOR CLOUDY 67 65 93 SE8 29.97F FOG  
STURGIS FOG 66 66 100 SE5 30.01R VSB 1/2  
COLDWATER CLOUDY 68 68 100 S3 30.01S FOG  
HILLSDALE CLOUDY 68 64 88 S3 30.01F  

 
   
..OTHER LOCATIONS
 
 
 
CITY SKY/WX TMP DP RH WIND PRES REMARKS  
SAINT LOUIS MO MOSUNNY 78 70 76 S9 29.92R  
CAPE GIRARDEAU SUNNY 78 71 79 S8 29.96S  
MILWAUKEE WI CLOUDY 69 68 96 SE14 29.90F FOG  
NASHVILLE TN PTSUNNY 74 68 81 SE3 30.07R  

 
 
 
 
CLICK HERE TO GO TO PREVIOUS BULLETINS.

The Nexlab IN Page Main Text Page